Temp
68 69 71 72 71 71 71 72 72 72 73 74 75 73 72 72 73 74 74 73 73 72 72 71 71 70 70 68 68 68 66 68
69 68 69 69 70 70 71 71 71 71 71 73 73 71 71 71 72 73 73 73 72 72 71 71 70 69 68 68 68 67 66 67
70 70 69 69 69 70 71 72 72 71 71 71 71 70 70 71 73 72 72 71 71 71 71 70 69 68 68 68 67 65 66 66
69 69 68 67 71 70 68 69 69 69 69 69 70 70 69 70 71 71 71 71 71 70 69 68 68 67 67 67 65 64 65 66
68 68 69 69 72 70 68 66 66 67 67 68 69 69 68 68 68 69 70 71 70 69 68 68 66 66 64 63 64 64 64 69
64 68 69 69 72 70 70 68 66 67 67 67 68 67 67 66 66 68 70 70 68 68 68 67 65 64 63 63 63 63 63 67
53 60 68 70 71 68 70 69 68 68 67 68 68 67 67 66 64 66 68 69 69 67 67 66 63 63 63 63 62 62 62 64
52 56 68 70 71 68 68 69 68 68 68 68 68 68 67 66 63 64 66 67 69 68 68 64 62 63 62 63 63 62 61 61
52 56 57 69 69 68 68 68 68 68 68 68 68 68 68 67 63 62 65 65 65 66 66 64 62 63 62 63 62 61 61 60
53 56 55 65 68 68 68 68 67 67 68 68 68 68 68 67 64 62 64 65 64 65 64 62 62 62 62 62 62 61 60 59
50 52 52 53 67 67 68 68 67 67 68 68 68 68 67 66 66 63 64 64 64 65 64 63 61 61 62 62 62 58 59 61
51 50 50 52 56 67 67 66 67 67 67 68 67 67 67 66 64 64 64 63 64 64 63 63 62 62 62 60 61 61 59 58
49 48 49 50 52 57 65 65 66 66 67 67 67 67 66 65 64 64 63 62 62 64 63 61 60 61 58 57 57 59 59 57
48 47 48 49 51 52 59 67 66 67 67 67 67 66 66 65 64 64 64 62 62 64 64 61 60 61 59 57 53 56 59 59
46 46 47 48 50 52 57 65 65 64 65 65 66 66 66 65 65 65 65 64 64 64 64 62 59 60 62 59 54 54 56 57
46 47 46 49 48 49 51 58 63 65 65 65 65 66 66 65 64 65 66 66 65 64 64 63 62 59 60 61 60 59 55 53
46 45 46 47 47 48 49 52 60 65 64 64 64 65 65 65 64 61 64 65 65 65 64 63 63 62 61 58 58 57 56 54
44 44 44 46 46 46 48 48 51 59 63 63 63 64 64 64 64 62 64 65 65 65 65 64 62 63 63 61 59 57 55 53
44 43 43 44 44 45 47 48 50 54 60 63 63 63 63 63 64 63 62 64 65 65 64 64 63 62 62 62 63 60 58 57
42 41 42 43 44 44 46 49 49 53 56 62 64 64 64 64 63 64 64 64 64 64 64 63 63 62 62 62 62 63 60 59
MSLP
1009.99 1010.25 1010.43 1010.60 1010.76 1011.00 1011.30 1011.62 1011.82 1011.89 1012.07 1012.46 1012.97 1013.66 1014.52 1015.07 1015.25 1015.40 1015.82 1016.27 1016.87 1017.37 1017.77 1018.16 1018.55 1018.97 1019.38 1019.75 1020.19 1020.66 1020.99 1021.38
1010.24 1010.45 1010.59 1010.87 1011.07 1011.18 1011.45 1011.71 1011.96 1011.98 1012.14 1012.58 1013.04 1013.92 1014.91 1015.29 1015.18 1015.66 1016.16 1016.66 1017.11 1017.55 1018.00 1018.49 1018.87 1019.27 1019.68 1020.04 1020.51 1020.98 1021.24 1021.66
1010.65 1010.81 1010.90 1010.98 1011.23 1011.36 1011.60 1011.78 1011.98 1012.18 1012.32 1012.83 1013.33 1014.23 1014.97 1015.13 1015.09 1015.87 1016.49 1016.97 1017.26 1017.80 1018.18 1018.77 1019.28 1019.66 1019.93 1020.40 1020.85 1021.34 1021.59 1021.91
1011.37 1011.34 1011.41 1011.41 1011.36 1011.54 1011.82 1011.92 1011.99 1012.28 1012.61 1013.19 1013.67 1014.28 1014.95 1015.19 1015.84 1016.00 1016.88 1017.23 1017.49 1017.96 1018.36 1018.95 1019.55 1019.96 1020.35 1020.71 1021.07 1021.50 1021.83 1022.01
1012.20 1011.59 1011.55 1011.83 1011.61 1011.70 1011.91 1012.23 1012.33 1012.42 1012.69 1013.08 1013.66 1014.35 1014.69 1015.63 1016.06 1016.47 1017.27 1017.48 1017.78 1018.23 1018.68 1019.13 1019.59 1020.02 1020.50 1020.97 1021.35 1021.58 1021.84 1022.11
1013.17 1012.58 1011.77 1011.57 1011.69 1011.82 1011.83 1012.05 1012.45 1012.61 1012.88 1013.20 1013.65 1014.29 1014.96 1015.53 1015.85 1016.55 1017.10 1017.59 1017.91 1018.35 1018.72 1019.17 1019.62 1020.17 1020.47 1021.06 1021.49 1021.79 1022.01 1022.37
1014.12 1013.38 1012.24 1011.79 1011.43 1011.86 1011.87 1012.03 1012.23 1012.58 1012.93 1013.24 1013.60 1014.04 1014.89 1015.51 1016.10 1016.69 1017.05 1017.53 1017.88 1018.31 1018.73 1019.24 1019.80 1020.36 1020.70 1021.11 1021.56 1021.89 1022.21 1022.59
1014.60 1013.60 1012.33 1011.63 1011.47 1011.47 1011.69 1011.77 1012.09 1012.55 1012.89 1013.09 1013.52 1013.91 1014.48 1015.10 1016.13 1016.78 1017.09 1017.44 1017.77 1018.12 1018.59 1019.34 1019.85 1020.37 1020.88 1021.37 1021.65 1022.04 1022.51 1022.81
1015.16 1013.94 1013.03 1011.44 1011.41 1011.29 1011.51 1011.54 1011.87 1012.28 1012.66 1013.06 1013.36 1013.81 1014.28 1014.99 1015.60 1016.55 1016.95 1017.24 1017.72 1018.10 1018.75 1019.46 1019.97 1020.56 1020.90 1021.48 1021.84 1022.23 1022.70 1023.01
1015.54 1014.57 1013.25 1011.57 1011.07 1011.17 1011.24 1011.28 1011.71 1012.04 1012.45 1012.87 1013.21 1013.49 1013.80 1014.43 1015.21 1016.13 1016.66 1017.09 1017.62 1017.82 1018.43 1019.39 1020.03 1020.52 1021.00 1021.61 1022.04 1022.44 1022.82 1023.15
1015.91 1014.84 1013.90 1012.92 1011.00 1010.93 1011.05 1011.11 1011.52 1011.56 1012.19 1012.37 1012.87 1013.18 1013.50 1014.19 1014.53 1015.53 1016.47 1016.89 1017.42 1017.83 1018.22 1018.85 1019.89 1020.64 1021.13 1021.73 1022.14 1022.78 1022.86 1023.23
1016.39 1015.63 1014.53 1013.42 1012.04 1010.52 1010.65 1010.89 1011.20 1011.24 1011.62 1011.93 1012.33 1012.64 1013.15 1013.57 1014.14 1014.83 1015.67 1016.80 1017.37 1017.64 1017.80 1018.74 1019.29 1020.14 1021.27 1022.04 1022.49 1022.86 1023.08 1023.31
1016.69 1015.80 1015.02 1014.07 1013.04 1011.89 1010.37 1010.14 1010.45 1010.91 1011.20 1011.50 1011.67 1012.28 1012.68 1013.10 1014.18 1014.81 1015.67 1016.25 1016.61 1017.13 1017.15 1018.16 1019.49 1019.93 1021.37 1022.49 1023.02 1023.16 1023.48 1023.52
1017.45 1016.55 1015.66 1014.80 1013.94 1012.78 1011.21 1009.49 1010.01 1010.47 1010.82 1011.08 1011.36 1011.72 1012.27 1012.65 1013.63 1014.75 1014.92 1015.93 1016.78 1016.82 1017.07 1018.28 1019.16 1019.77 1020.54 1021.85 1022.82 1023.43 1023.51 1023.62
1017.98 1017.18 1016.32 1015.23 1014.29 1012.83 1011.03 1009.26 1009.52 1010.04 1010.50 1010.70 1010.83 1011.20 1011.88 1012.52 1013.08 1013.91 1013.93 1014.65 1015.76 1016.41 1016.84 1017.28 1018.37 1019.36 1019.84 1020.37 1021.71 1022.15 1022.94 1023.29
1018.42 1017.58 1016.70 1015.65 1014.76 1013.68 1012.53 1010.60 1009.33 1009.26 1009.65 1010.23 1010.49 1010.65 1011.30 1012.08 1012.87 1013.32 1013.85 1013.71 1014.30 1015.00 1016.26 1016.99 1017.81 1018.81 1019.77 1019.85 1020.25 1020.58 1021.90 1022.94
1018.84 1017.87 1016.95 1016.02 1015.21 1014.28 1013.26 1011.55 1010.33 1009.00 1009.31 1010.13 1010.37 1010.49 1010.69 1011.66 1012.30 1013.27 1013.44 1013.95 1014.49 1014.83 1015.29 1016.13 1017.16 1017.82 1018.71 1019.57 1019.96 1020.49 1020.85 1021.68
1019.13 1018.17 1017.32 1016.38 1015.46 1014.58 1013.42 1012.44 1011.42 1009.88 1009.18 1009.71 1010.10 1010.18 1010.42 1010.91 1011.78 1012.48 1012.96 1013.56 1014.04 1014.27 1014.95 1015.26 1016.56 1017.41 1018.08 1018.64 1018.93 1019.76 1020.42 1020.99
1019.42 1018.57 1017.44 1016.66 1015.76 1014.87 1014.05 1012.81 1012.09 1010.45 1009.58 1009.16 1009.57 1009.95 1009.95 1010.23 1010.86 1011.90 1012.41 1012.99 1013.56 1013.95 1014.64 1015.06 1015.77 1016.70 1017.41 1017.94 1018.45 1018.72 1019.36 1019.97
1019.79 1018.95 1017.87 1017.00 1016.31 1015.52 1014.38 1013.67 1012.26 1011.04 1010.34 1008.97 1008.51 1009.22 1009.51 1009.90 1010.11 1011.10 1011.80 1012.49 1012.87 1013.57 1014.19 1014.50 1014.97 1016.23 1016.74 1017.30 1017.80 1018.14 1018.71 1018.78
Wind_Speed
4 4 6 8 8 10 9 10 10 11 13 14 18 22 20 15 14 16 18 20 21 20 20 21 21 20 19 18 18 17 9 8
6 4 4 4 4 8 9 10 10 9 11 14 19 20 21 19 15 16 19 20 21 20 20 21 20 20 19 19 18 16 9 8
7 6 5 5 4 5 9 11 10 9 9 15 17 12 13 16 18 18 19 20 21 18 19 19 19 19 20 18 15 6 7 5
6 7 7 4 7 5 4 5 4 4 5 8 8 11 11 9 9 17 17 18 19 18 19 20 15 8 8 13 6 7 5 5
8 7 5 7 7 5 3 2 2 3 7 8 8 8 8 6 4 8 8 14 9 11 13 8 10 7 6 6 7 6 4 5
14 10 7 7 6 5 6 5 3 4 6 9 9 7 8 6 3 7 9 7 9 7 6 9 9 8 10 9 8 6 4 5
16 19 10 8 9 5 7 6 6 6 7 8 8 9 8 6 5 4 6 6 7 7 8 8 9 9 8 10 9 8 7 4
18 15 16 11 10 8 7 6 7 7 7 8 10 8 9 9 7 4 6 5 7 7 8 8 8 8 9 8 8 7 6 6
17 18 21 13 13 8 7 6 8 8 8 9 11 10 11 11 9 7 5 5 6 7 8 8 8 6 10 7 7 7 6 7
18 17 15 14 11 7 7 6 7 7 7 8 12 10 12 9 10 8 5 5 5 6 9 8 7 8 8 6 6 5 7 6
18 19 18 19 10 7 7 7 9 8 7 8 12 12 11 11 7 12 14 9 7 7 8 11 9 7 7 6 6 4 7 6
17 15 17 19 13 6 6 6 7 8 8 9 12 9 13 11 7 8 15 12 11 7 11 8 9 10 7 5 4 4 4 5
20 20 19 15 12 11 8 9 9 7 9 11 11 10 12 12 8 11 11 11 8 10 10 12 6 9 8 5 3 3 3 3
19 19 19 14 11 12 10 8 6 8 5 10 11 13 13 12 12 11 14 13 10 10 10 8 4 8 6 4 3 2 2 4
19 19 19 16 17 12 12 3 3 5 9 8 11 15 15 14 14 14 17 15 14 10 9 10 8 5 12 5 4 3 3 3
19 19 18 16 18 14 15 10 6 6 7 5 8 15 16 15 14 12 11 11 17 17 11 9 9 10 5 0 1 5 4 3
18 17 18 18 17 15 11 12 10 6 6 8 11 11 16 17 15 9 7 9 11 13 15 13 9 10 9 3 2 1 3 3
17 19 18 18 17 17 16 15 13 8 9 8 8 9 11 15 15 14 9 10 12 12 13 16 11 10 9 6 6 4 4 3
17 20 19 19 19 17 16 15 15 10 9 11 10 8 8 14 17 15 11 10 11 12 13 14 14 11 12 10 8 7 3 3
20 20 19 18 18 17 15 13 9 8 9 8 10 10 12 13 15 15 17 12 11 11 10 11 11 10 13 11 9 9 6 4
Wind_Direction
131 162 172 174 175 169 168 166 167 166 164 166 159 141 138 177 181 143 136 136 140 137 130 130 127 124 120 114 111 110 103 102
159 150 152 160 186 166 172 172 172 177 163 156 148 136 155 191 180 144 138 142 143 136 133 132 128 124 122 117 114 107 102 98
190 188 184 169 162 185 179 180 173 176 159 149 144 149 169 198 187 144 144 148 143 134 129 128 125 123 118 114 108 105 106 106
209 200 201 175 188 180 174 185 167 161 130 152 145 156 169 194 196 143 146 147 139 134 130 127 123 123 115 113 116 115 110 104
267 212 203 209 205 186 162 140 138 131 131 134 140 134 150 164 155 142 146 144 140 127 131 133 133 131 117 118 118 114 112 110
337 279 223 200 219 197 186 160 151 147 148 140 147 152 148 138 125 142 155 158 144 139 141 136 127 129 126 124 120 119 112 115
333 323 249 229 210 200 200 180 172 164 157 156 154 156 153 140 127 132 152 158 152 141 139 135 124 128 123 132 130 123 117 118
329 320 282 229 228 196 200 184 175 171 171 169 165 159 161 153 157 143 140 153 154 144 144 139 132 135 125 137 131 123 121 125
337 332 332 232 229 202 204 180 180 180 179 180 173 170 172 168 170 161 153 133 121 128 135 133 127 138 129 137 132 129 133 135
340 340 327 290 220 219 207 191 189 186 187 186 187 177 184 159 161 180 167 152 143 149 151 141 138 142 135 141 138 137 136 137
348 350 348 333 250 213 207 195 201 185 193 185 193 184 178 180 175 169 177 176 176 178 155 150 144 135 135 138 140 151 147 145
348 351 349 340 334 208 202 194 202 191 194 193 182 182 183 168 144 154 172 172 181 191 149 148 148 141 124 116 127 153 151 152
354 352 349 348 341 332 213 213 197 195 195 198 173 177 163 158 151 147 157 181 181 195 141 135 135 130 121 84 61 98 157 160
350 353 347 344 339 320 296 193 199 204 188 188 194 172 161 149 161 164 161 174 199 196 149 148 126 162 135 121 139 141 198 189
350 347 346 344 338 332 330 175 138 170 191 188 191 178 171 164 173 179 171 165 184 190 172 157 156 166 163 137 155 182 128 170
346 348 345 346 342 338 326 312 204 200 187 198 190 186 183 179 180 188 188 181 181 180 174 168 158 171 174 110 134 143 168 181
344 347 346 348 346 340 332 336 309 190 166 194 199 189 184 189 186 189 181 179 185 183 174 164 172 166 182 135 126 149 89 137
348 346 348 347 346 343 340 341 327 310 175 194 200 198 189 188 193 193 190 189 189 181 181 168 169 184 191 179 154 177 177 159
352 348 347 347 346 345 334 342 321 321 300 193 186 205 193 187 186 191 189 188 183 178 177 176 176 183 188 197 195 197 150 155
352 350 345 347 345 339 341 330 328 321 311 267 192 199 209 193 192 191 195 191 182 177 180 176 170 191 195 197 199 202 183 170